Terug naar catalogus

STARLINK-4621

ActiefCommunicatieSSO
NORAD 53676·PAYLOAD·🇺🇸 United States

Gelanceerd Aug 31, 2022 vanaf Vandenberg Space Force Base

Loading…

Volgende Passages (komende 24 uur)

TLE

VersSource: CelesTrak SupGP

Epoch: Sep 15, 2026, 02:40 UTC

1 53676C 22105AE  26258.11159722  .00042970  00000+0  29832-2 0  2583
2 53676  97.2830 132.2270 0002469  89.4285 337.2055 15.05637624    17

Volg STARLINK-4621 in realtime met AllMySat

Download on the App Store